Location: Ammerl�gen
(47.2167°N, 9.6000°E)
Time: 10:04:50
(UTC+00:00)

Cosmos 2237 Rocket - Pass Details

Date: 21 April 2021
Orbit: 836 x 849 km, 71.0° (Epoch: 06 May)

Event Time Altitude Azimuth Distance (km) Brightness Sun altitude
Rises 20:33:47 0° 326° (NW) 3,402 6.9 -20.0°
Reaches altitude 10° 20:36:24 10° 318° (NW) 2,462 5.8 -20.3°
Maximum altitude 20:41:29 36° 254° (WSW) 1,303 3.4 -20.9°
Enters shadow 20:44:51 19° 199° (SSW) 1,894 3.7 -21.3°
